INTELSAT 18 (IS-18)

Last updated on Jan. 25, 2020, 4:43 a.m. UTC

1 37834U 11056A   20024.51533595  .00000044  00000-0  00000-0 0  9990
2 37834   0.0168  61.5219 0001951 262.2890 164.9755  1.00272652 30523
UTC
Height (km)
Latitude
Longitude
Inclination
Orbital Period
UTC large
Height (km)
Speed (km/s)
/
Latitude / Longitude
Inclination (degrees)
Orbital Period (minutes)
Azimuth
Elevation
Range (km)
Doppler Factor
iOS Compass Heading
iOS Angle

Next 30 passes for location: Hong Kong

Rise time Rise Azimuth (degrees) Set time Set Azimuth (degrees) Duration Max altitude (degrees)

No matching passes for this satellites